[[{"header":{"parameterUnit":"m.s-1","parameterCategory":1,"la1":30.2991,"la2":30.254,"lo1":-89.0895,"lo2":-89.0444,"dy":0.0017,"dx":0.0017,"nx":28,"ny":28,"refTime":"2023-11-16T09:00:00:Z","depth":0,"parameterNumber":2,"parameterNumberName":"U-component_of_WINDS"},"data":[0,0,0,0,0,0,0,0,0,0,0,0,0,0,0,0,0,0,0,0,0,0,0,0,0,0,0,0,0,0,0,0,0,0,0,0,0,0,0,0,0,0,0,0,0,0,0,0,0,0,0,0,0,0,0,0,0,0,0.1772,0.1772,0,0.1714,0.1714,0.1713,0.1695,0.1695,0.1696,0.1696,0.1634,0.1632,0.163,0,0,0,0,0,0,0,0,0,0,0,0,0,0.1865,0.1863,0.1772,0.1772,0.1771,0.1714,0.1714,0.1713,0.1695,0.1695,0.1696,0.1696,0.1634,0.1632,0.163,0,0,0,0,0,0,0,0,0,0,0,0,0,0.1817,0.1862,0.1772,0.1755,0.1753,0.1715,0.1714,0.1713,0.1695,0.1695,0.1696,0.1696,0.1635,0.1632,0.163,0.1603,0,0,0.1621,0.1619,0,0,0,0,0,0,0,0,0.182,0.1814,0.1758,0.1756,0.1754,0.1712,0.1723,0.1676,0.1695,0.1717,0.1696,0.1696,0.1659,0.1655,0.1643,0.16,0.1598,0.162,0.1619,0.1617,0.1617,0,0,0,0,0,0,0,0.1823,0.1816,0.1749,0.1758,0.1755,0.1749,0.1743,0.1714,0.1686,0.1715,0.1714,0.1707,0.1658,0.1645,0.1641,0.1597,0.1621,0.1618,0.1616,0.1615,0.1528,0.1527,0,0,0,0,0,0,0.183,0.1819,0.1751,0.1748,0.1789,0.1747,0.174,0.1725,0.1687,0.1681,0.1707,0.1706,0.165,0.1644,0.1639,0.1604,0.1618,0.1615,0.1613,0.1529,0.1528,0.1527,0,0,0,0,0,0,0.1832,0.1824,0.1753,0.1783,0.1774,0.1745,0.1728,0.1724,0.1711,0.168,0.1675,0.1699,0.165,0.1643,0.1612,0.1602,0.1613,0.1611,0.1529,0.1528,0.1528,0.1536,0,0,0,0,0,0,0.1835,0.1825,0.1815,0.1783,0.1772,0.1729,0.1728,0.1722,0.1707,0.1706,0.1672,0.1667,0.165,0.1616,0.1609,0.1598,0.1609,0.153,0.1529,0.1528,0.1536,0.1535,0.1534,0,0,0,0,0,0.1838,0.182,0.1815,0.1807,0.176,0.1728,0.1722,0.1704,0.1706,0.1695,0.1675,0.1668,0.1604,0.1613,0.1605,0.1593,0.1531,0.1529,0.1528,0.1537,0.1535,0.1534,0,0,0,0,0,0,0.1851,0.1815,0.1809,0.178,0.1757,0.1725,0.1711,0.1703,0.1679,0.1679,0.1657,0.1649,0.162,0.1603,0.1614,0.1565,0.1567,0.1564,0.1576,0.1575,0.1574,0.1578,0.1606,0,0,0,0,0,0.185,0.1828,0.1798,0.1775,0.1764,0.174,0.1725,0.1714,0.1689,0.1679,0.1657,0.1632,0.1606,0.159,0.1565,0.1534,0.1526,0.1522,0.1521,0.152,0.1517,0.1498,0.1496,0.1523,0.1523,0.1523,0,0,0.1849,0.1826,0.1814,0.1777,0.1758,0.1735,0.1732,0.1708,0.169,0.1675,0.1644,0.1627,0.1598,0.1567,0.1552,0.1552,0.1508,0.1518,0.1518,0.1516,0.1497,0.1494,0.1492,0.1522,0.1522,0.1522,0,0,0.1834,0.1815,0.1794,0.1775,0.1746,0.173,0.1725,0.1694,0.1682,0.1651,0.1639,0.1617,0.1574,0.1554,0.1538,0.1515,0.1506,0.1507,0.1502,0.1484,0.1482,0.1479,0.147,0.1467,0.1505,0.1505,0.1505,0,0.1835,0.1801,0.1783,0.176,0.1743,0.173,0.1707,0.1689,0.1653,0.1642,0.1643,0.1588,0.1567,0.153,0.1525,0.1513,0.1505,0.151,0.1484,0.1481,0.1479,0.147,0.1466,0.1505,0.1505,0.1505,0.1505,0,0.1803,0.1779,0.1765,0.1732,0.1714,0.1691,0.1669,0.1653,0.1642,0.1626,0.1594,0.1569,0.1538,0.1529,0.1518,0.149,0.1491,0.1488,0.149,0.1477,0.1468,0.1464,0.1505,0.1505,0.1505,0.1505,0,0,0.1794,0.1752,0.1747,0.1731,0.1698,0.1679,0.1655,0.1625,0.1611,0.1587,0.1565,0.1529,0.1526,0.1508,0.1495,0.1479,0.1461,0.1478,0.1477,0.1474,0.1426,0.1428,0.1424,0.1455,0.1454,0.1454,0.1428,0,0.1774,0.1731,0.1715,0.1679,0.1656,0.1643,0.1621,0.1598,0.1582,0.156,0.1541,0.1515,0.1514,0.1503,0.1487,0.1466,0.145,0.1468,0.1433,0.1432,0.144,0.1419,0.1421,0.1398,0.1425,0.1424,0.1424,0,0.1745,0.1721,0.1684,0.1653,0.1643,0.1624,0.1595,0.1574,0.1548,0.1537,0.1516,0.1504,0.1477,0.1481,0.1443,0.1455,0.144,0.1427,0.1426,0.1421,0.1426,0.1412,0.139,0.1386,0.1418,0.1418,0.1419,0,0.1741,0.1699,0.1671,0.1658,0.1622,0.1609,0.1594,0.1567,0.155,0.1525,0.1513,0.1485,0.1469,0.1447,0.1427,0.1432,0.1389,0.1392,0.1378,0.1379,0.1369,0.1369,0.1342,0.1361,0.1361,0.1361,0.1361,0,0.172,0.1697,0.1669,0.1651,0.1625,0.1606,0.158,0.1563,0.154,0.1518,0.1504,0.1484,0.1459,0.1435,0.1419,0.1389,0.1382,0.1372,0.1367,0.1372,0.1373,0.1361,0.1361,0.136,0.1361,0.1361,0.1361,0,0.171,0.1691,0.1659,0.1627,0.1619,0.1601,0.1573,0.1555,0.1539,0.1511,0.1503,0.1477,0.1447,0.1426,0.1388,0.1377,0.1344,0.1341,0.1354,0.1351,0.1338,0.1339,0.1301,0.1294,0.1319,0.1319,0.1319,0,0.1697,0.1679,0.1646,0.1631,0.1616,0.1591,0.1574,0.1554,0.1537,0.1504,0.149,0.146,0.1435,0.1389,0.1365,0.1336,0.1331,0.1319,0.1326,0.1331,0.1329,0.133,0.1327,0.1318,0.1318,0.1318,0.1318,0,0.1676,0.1667,0.1644,0.1616,0.1596,0.1573,0.155,0.1538,0.1514,0.1494,0.1465,0.1446,0.1407,0.1377,0.1346,0.1328,0.1318,0.1316,0.1311,0.1315,0.1322,0.1317,0.135,0.1317,0.1317,0.1317,0.1317,0.1317,0.1663,0.1647,0.1621,0.1594,0.1575,0.1553,0.1535,0.1516,0.1491,0.1459,0.1448,0.1418,0.139,0.1347,0.1329,0.1303,0.1303,0.1296,0.1294,0.1292,0.1292,0.1328,0.1298,0.1298,0.1298,0.1298,0.1298,0,0.164,0.1623,0.1599,0.1567,0.1546,0.1541,0.1514,0.1497,0.147,0.1446,0.1422,0.1387,0.1358,0.1332,0.1301,0.1286,0.128,0.1278,0.1278,0.1274,0.1295,0.1301,0.1283,0.1283,0.1283,0.1283,0.1283,0.1283,0.1626,0.1597,0.1585,0.1545,0.1528,0.1498,0.1483,0.1463,0.1444,0.1406,0.1382,0.1366,0.134,0.1307,0.128,0.1273,0.1261,0.126,0.1252,0.1271,0.1273,0.1274,0.1281,0.1258,0.1258,0.1233,0.1233,0.1233]},{"header":{"parameterUnit":"m.s-1","parameterCategory":1,"la1":30.2991,"la2":30.254,"lo1":-89.0895,"lo2":-89.0444,"dy":0.0017,"dx":0.0017,"nx":28,"ny":28,"refTime":"2023-11-16T09:00:00:Z","depth":0,"parameterNumber":3,"parameterNumberName":"V-component_of_WINDS"},"data":[0,0,0,0,0,0,0,0,0,0,0,0,0,0,0,0,0,0,0,0,0,0,0,0,0,0,0,0,0,0,0,0,0,0,0,0,0,0,0,0,0,0,0,0,0,0,0,0,0,0,0,0,0,0,0,0,0,0,-0.2717,-0.2717,0,-0.2724,-0.2724,-0.2724,-0.2736,-0.2736,-0.2736,-0.2736,-0.2744,-0.2744,-0.2745,0,0,0,0,0,0,0,0,0,0,0,0,0,-0.2717,-0.2717,-0.2717,-0.2717,-0.2717,-0.2724,-0.2724,-0.2725,-0.2736,-0.2736,-0.2736,-0.2736,-0.2744,-0.2744,-0.2745,0,0,0,0,0,0,0,0,0,0,0,0,0,-0.272,-0.2717,-0.2717,-0.2724,-0.2724,-0.2724,-0.2724,-0.2725,-0.2736,-0.2736,-0.2736,-0.2736,-0.2744,-0.2744,-0.2745,-0.2739,0,0,-0.2745,-0.2745,0,0,0,0,0,0,0,0,-0.272,-0.272,-0.2723,-0.2723,-0.2724,-0.2729,-0.2727,-0.2729,-0.2735,-0.2731,-0.2736,-0.2737,-0.2739,-0.274,-0.274,-0.2739,-0.274,-0.2745,-0.2745,-0.2745,-0.2745,0,0,0,0,0,0,0,-0.2719,-0.272,-0.272,-0.2723,-0.2724,-0.2728,-0.2728,-0.2728,-0.2734,-0.2732,-0.2733,-0.2733,-0.274,-0.274,-0.2741,-0.274,-0.2745,-0.2745,-0.2745,-0.2745,-0.2739,-0.2739,0,0,0,0,0,0,-0.2718,-0.2719,-0.272,-0.272,-0.2722,-0.2727,-0.2728,-0.2727,-0.2734,-0.2735,-0.2733,-0.2734,-0.274,-0.2741,-0.2741,-0.2738,-0.2745,-0.2745,-0.2745,-0.2739,-0.2739,-0.2739,0,0,0,0,0,0,-0.2718,-0.2718,-0.272,-0.272,-0.2721,-0.2727,-0.2726,-0.2727,-0.2728,-0.2734,-0.2736,-0.2732,-0.274,-0.2741,-0.274,-0.2738,-0.2745,-0.2745,-0.2739,-0.2739,-0.2739,-0.2729,0,0,0,0,0,0,-0.2718,-0.2718,-0.2714,-0.272,-0.272,-0.2717,-0.2726,-0.2727,-0.2728,-0.2729,-0.2734,-0.2735,-0.2741,-0.274,-0.274,-0.2738,-0.2745,-0.274,-0.2739,-0.2739,-0.2729,-0.2728,-0.2727,0,0,0,0,0,-0.2718,-0.2711,-0.2714,-0.2714,-0.2716,-0.2717,-0.2718,-0.2723,-0.2728,-0.2725,-0.273,-0.2735,-0.2738,-0.274,-0.274,-0.2738,-0.274,-0.2739,-0.2739,-0.273,-0.2728,-0.2727,0,0,0,0,0,0,-0.2704,-0.2711,-0.2715,-0.271,-0.2713,-0.2719,-0.2716,-0.2721,-0.2723,-0.2724,-0.2732,-0.2733,-0.2732,-0.2735,-0.2737,-0.2735,-0.274,-0.274,-0.2733,-0.2732,-0.2731,-0.273,-0.2745,0,0,0,0,0,-0.2701,-0.27,-0.2706,-0.2701,-0.2702,-0.2709,-0.2709,-0.2714,-0.2718,-0.2719,-0.2724,-0.2728,-0.273,-0.2731,-0.2733,-0.273,-0.2733,-0.2729,-0.2728,-0.2727,-0.2727,-0.2729,-0.2728,-0.2737,-0.2737,-0.2737,0,0,-0.2693,-0.2697,-0.2696,-0.2698,-0.2701,-0.2702,-0.271,-0.2709,-0.271,-0.2719,-0.2719,-0.2723,-0.2728,-0.2727,-0.2727,-0.273,-0.2725,-0.2727,-0.2726,-0.2726,-0.2728,-0.2727,-0.2727,-0.2737,-0.2737,-0.2737,0,0,-0.268,-0.2682,-0.2679,-0.2682,-0.2687,-0.2692,-0.2692,-0.2698,-0.2701,-0.2701,-0.2709,-0.2711,-0.2714,-0.2718,-0.2721,-0.2714,-0.2719,-0.2714,-0.2708,-0.271,-0.271,-0.2709,-0.2709,-0.2708,-0.2714,-0.2714,-0.2714,0,-0.267,-0.267,-0.2677,-0.2677,-0.2679,-0.2688,-0.2687,-0.269,-0.2695,-0.2697,-0.27,-0.2706,-0.271,-0.2712,-0.271,-0.2711,-0.2713,-0.2713,-0.2709,-0.2709,-0.2708,-0.2708,-0.2707,-0.2713,-0.2713,-0.2713,-0.2713,0,-0.2659,-0.2659,-0.2657,-0.2663,-0.2664,-0.2663,-0.2672,-0.2673,-0.2679,-0.2684,-0.2687,-0.2692,-0.2697,-0.2698,-0.2702,-0.2701,-0.2703,-0.2707,-0.2713,-0.2707,-0.2707,-0.2706,-0.2712,-0.2713,-0.2713,-0.2713,0,0,-0.2635,-0.2647,-0.2646,-0.2651,-0.2658,-0.2659,-0.2661,-0.2666,-0.2668,-0.2672,-0.2675,-0.2679,-0.2684,-0.2687,-0.2693,-0.2694,-0.2691,-0.2699,-0.2699,-0.2699,-0.2694,-0.2691,-0.2691,-0.2695,-0.2695,-0.2695,-0.2694,0,-0.2625,-0.2626,-0.2634,-0.2634,-0.2636,-0.2647,-0.2648,-0.2654,-0.266,-0.2664,-0.2671,-0.2674,-0.2679,-0.2682,-0.2684,-0.2691,-0.2691,-0.2691,-0.2699,-0.27,-0.2698,-0.269,-0.2687,-0.2685,-0.2694,-0.2694,-0.2694,0,-0.2612,-0.2617,-0.2617,-0.2628,-0.2629,-0.263,-0.2637,-0.264,-0.2648,-0.2653,-0.2658,-0.2665,-0.2669,-0.2674,-0.2681,-0.2681,-0.2685,-0.269,-0.269,-0.2691,-0.2696,-0.2693,-0.2684,-0.2684,-0.2693,-0.2693,-0.2693,0,-0.2597,-0.2604,-0.2606,-0.2609,-0.2621,-0.2622,-0.2627,-0.2636,-0.2639,-0.2646,-0.2649,-0.2656,-0.266,-0.2667,-0.2676,-0.2679,-0.2683,-0.2688,-0.2688,-0.2688,-0.2689,-0.2689,-0.2682,-0.269,-0.269,-0.269,-0.269,0,-0.2585,-0.2585,-0.26,-0.2601,-0.2603,-0.2613,-0.2615,-0.2621,-0.2629,-0.2633,-0.2643,-0.2647,-0.2659,-0.2665,-0.2673,-0.2679,-0.268,-0.2685,-0.2687,-0.2685,-0.2684,-0.2688,-0.2688,-0.269,-0.269,-0.269,-0.269,0,-0.2569,-0.2578,-0.2581,-0.2594,-0.2597,-0.2598,-0.2609,-0.2612,-0.2619,-0.2625,-0.2626,-0.2639,-0.2646,-0.2657,-0.2668,-0.2673,-0.2679,-0.2681,-0.2676,-0.2677,-0.2678,-0.2678,-0.2673,-0.2674,-0.2681,-0.2681,-0.2681,0,-0.2561,-0.2562,-0.2575,-0.2578,-0.2583,-0.2588,-0.2593,-0.2604,-0.2609,-0.262,-0.2622,-0.2631,-0.2638,-0.2651,-0.2661,-0.267,-0.2674,-0.2672,-0.2676,-0.2674,-0.2676,-0.2676,-0.2678,-0.2671,-0.2671,-0.2671,-0.2671,0,-0.2546,-0.2552,-0.2558,-0.2566,-0.2572,-0.2579,-0.2586,-0.2589,-0.2602,-0.2607,-0.2616,-0.2622,-0.2634,-0.2643,-0.2655,-0.2661,-0.2669,-0.267,-0.2671,-0.2668,-0.2666,-0.2669,-0.2675,-0.267,-0.267,-0.267,-0.267,-0.267,-0.2535,-0.2538,-0.2548,-0.2555,-0.2563,-0.257,-0.2574,-0.2583,-0.259,-0.2601,-0.2608,-0.2617,-0.2628,-0.2644,-0.2651,-0.2659,-0.2662,-0.2663,-0.2663,-0.2663,-0.2663,-0.2664,-0.2661,-0.2661,-0.2661,-0.2661,-0.2661,0,-0.2523,-0.2531,-0.2537,-0.2549,-0.2555,-0.2562,-0.2572,-0.2577,-0.2585,-0.2594,-0.2602,-0.2614,-0.2624,-0.2636,-0.2647,-0.2652,-0.2656,-0.2654,-0.2655,-0.2657,-0.2659,-0.2658,-0.2651,-0.2651,-0.2651,-0.2651,-0.2651,-0.2651,-0.2517,-0.2523,-0.253,-0.254,-0.2548,-0.2557,-0.2562,-0.257,-0.2579,-0.2591,-0.2599,-0.2607,-0.2619,-0.2632,-0.2642,-0.2646,-0.265,-0.2648,-0.2653,-0.2655,-0.2656,-0.2657,-0.2656,-0.2648,-0.2648,-0.265,-0.265,-0.265]}]]